Volver al catálogo

UTMN-2

ActivoRadioaficionadoSSO
NORAD 57203·PAYLOAD·🇷🇺 Russia
Este nombre de satélite aún no ha sido confirmado por fuentes oficiales.

Lanzado Jun 27, 2023 desde Vostochny Cosmodrome

Loading…

Próximos Pases (próximas 24 horas)

TLE

ActualizadoSource: Space-Track

Época: Sep 14, 2026, 14:43 UTC

1 57203U 23091AP  26257.61378649  .00011012  00000-0  33687-3 0  9993
2 57203  97.4999 326.1598 0008830 117.9838 242.2299 15.33986269178240

Sigue UTMN-2 en tiempo real con AllMySat

Download on the App Store